Terug naar catalogus

CZ-4B DEB

ActiefPO
NORAD 37574·DEBRIS·🇨🇳 China

Gelanceerd May 27, 2008 vanaf Taiyuan Satellite Launch Center

Loading…

Volgende Passages (komende 24 uur)

TLE

VersSource: Space-Track

Epoch: Sep 14, 2026, 06:58 UTC

1 37574U 08026F   26257.29086563  .00000257  00000-0  24279-3 0  9994
2 37574  98.7589 265.1450 0249739  65.8135 296.8906 13.75690204701969

Volg CZ-4B DEB in realtime met AllMySat

Download on the App Store